User: anonymous   Login
Location: Bowman Observatory
(41.0326°N, 73.6210°W)
Time: 06:28:27
(UTC-04:00)
Language:

Cosmos 2297 - Orbit

View from above orbital plane
View from above orbital plane
View from above satellite
View from above satellite

Ground track
Ground track

The orbit data is extracted from the following two-line orbital elements,

1 23404U 94077A   16176.54803830 -.00000250  00000-0 -10721-3 0  9995
2 23404  71.0148 321.6321 0017257 324.3089  35.6878 14.13479120113537
Epoch (UTC): 24 June 2016 13:09:10
Eccentricity: 0.0017257
inclination: 71.0148°
perigee height: 835 km
apogee height: 860 km
right ascension of ascending node: 321.6321°
argument of perigee: 324.3089°
revolutions per day: 14.13479120
mean anomaly at epoch: 35.6878°
orbit number at epoch: 11353

The dashed part of the orbit path shows where the satellite is in the earth's shadow,  

DLR